Вернуться в каталог

CZ-6A DEB

АктивенSSO
NORAD 54449·DEBRIS·🇨🇳 China

Запущен Nov 11, 2022 с Taiyuan Satellite Launch Center

Loading…

Ближайшие Пролёты (ближайшие 24 часа)

TLE

СвежийSource: Space-Track

Эпоха: Sep 14, 2026, 09:30 UTC

1 54449U 22151FZ  26257.39597060  .00000163  00000-0  14671-3 0  9990
2 54449  98.9902 230.3603 0131943 190.7215 169.1127 13.93260253194856

Отслеживайте CZ-6A DEB в реальном времени с AllMySat

Download on the App Store